{"data":{"norad_id":37190,"epoch":"2026-09-19T12:31:36.971616Z","epoch_age_seconds":98921,"freshness":"FRESH","line1":"1 37190U 10054C   26262.52195569 -.00000102  00000+0  11193-4 0  9992","line2":"2 37190  52.0021 180.9647 0000324  59.5941 112.7979 12.62263733734789","mean_motion":12.62263733,"eccentricity":3.24e-5,"inclination_deg":52.0021,"raan_deg":180.9647,"arg_perigee_deg":59.5941,"mean_anomaly_deg":112.7979,"bstar":1.1193e-5,"rev_number":73478,"period_min":114.08075526163,"perigee_km":1413.3622591157,"apogee_km":1413.8671646266,"semimajor_km":7791.7517118712,"source":"CELESTRAK","updated_at":"2026-09-20T09:00:45.037187Z"}}